20040329,000014,518404,32.887400,-118.995350,NaN,15.075,33.073,40.867,1030.94,0.0, NaN,16.257,16.223, NaN,24.470,   NaN,16.88,1014.11,92.80,16.75,339.3,334.0,4.1,4.1,298.0,299.0,1.9,2.3,NaN, NaN,NaN,65.0,NaN,1080518415,NaN,NaN,9.6,000014,   NaN,61.9,32.887380,-118.995450,-0.02,NaN,NaN,15.079, NaN,NaN,NaN, NaN, NaN
20040329,000044,518434,32.887980,-118.993920,NaN,15.115,33.075,40.906,851.96,0.0, NaN,16.269,16.237, NaN,24.463,   NaN,16.89,1014.11,92.79,16.74,340.0,335.0,4.1,4.0,298.1,298.4,1.9,2.2,NaN, NaN,NaN,64.6,NaN,1080518445,NaN,NaN,9.5,000044,   NaN,62.9,32.887960,-118.994020,-0.07,NaN,NaN,15.119, NaN,NaN,NaN, NaN, NaN
20040329,000114,518464,32.888600,-118.992470,NaN,15.144,33.077,40.935,1015.49,0.0, NaN,16.284,16.249, NaN,24.459,   NaN,16.90,1014.12,92.84,16.76,340.5,336.0,4.2,4.1,297.9,298.5,1.8,2.2,NaN, NaN,NaN,56.5,NaN,1080518475,NaN,NaN,9.8,000075,   NaN,61.1,32.888550,-118.992610,0.18,NaN,NaN,15.148, NaN,NaN,NaN, NaN, NaN
20040329,000144,518494,32.889200,-118.991040,NaN,15.231,33.081,41.022,1026.03,0.0, NaN,16.278,16.240, NaN,24.443,   NaN,16.91,1014.07,92.87,16.77,339.7,334.7,4.1,4.0,296.4,296.0,1.9,2.3,NaN, NaN,NaN,62.5,NaN,1080518506,NaN,NaN,9.9,000105,   NaN,61.6,32.889170,-118.991130,0.25,NaN,NaN,15.235, NaN,NaN,NaN, NaN, NaN
20040329,000214,518524,32.889800,-118.989610,NaN,15.427,33.082,41.207,1012.84,0.0, NaN,16.259,16.220, NaN,24.400,   NaN,16.93,1014.09,92.87,16.78,338.0,333.3,4.0,3.9,292.5,293.7,2.1,2.4,NaN, NaN,NaN,55.5,NaN,1080518536,NaN,NaN,9.4,000135,   NaN,61.1,32.889780,-118.989720,0.13,NaN,NaN,15.431, NaN,NaN,NaN, NaN, NaN
20040329,000244,518553,32.890410,-118.988190,NaN,15.470,33.077,41.241,1016.14,0.0, NaN,16.243,16.203, NaN,24.387,   NaN,16.94,1014.09,92.84,16.78,338.3,332.4,3.9,3.8,288.5,291.1,2.1,2.5,NaN, NaN,NaN,64.2,NaN,1080518566,NaN,NaN,9.4,000165,   NaN,62.4,32.890390,-118.988290,0.17,NaN,NaN,15.474, NaN,NaN,NaN, NaN, NaN
20040329,000314,518584,32.891010,-118.986760,NaN,15.420,33.075,41.193,970.58,0.0, NaN,16.211,16.168, NaN,24.397,   NaN,16.95,1014.11,92.84,16.78,340.3,334.6,3.7,3.7,281.2,286.8,2.3,2.4,NaN, NaN,NaN,65.0,NaN,1080518596,NaN,NaN,9.9,000195,   NaN,60.1,32.890990,-118.986870,0.11,NaN,NaN,15.424, NaN,NaN,NaN, NaN, NaN
20040329,000344,518614,32.891630,-118.985340,NaN,15.377,33.073,41.150,872.89,0.0, NaN,16.138,16.090, NaN,24.404,   NaN,16.97,1014.10,92.84,16.79,343.6,339.1,3.7,3.8,277.4,285.3,2.1,2.1,NaN, NaN,NaN,69.5,NaN,1080518625,NaN,NaN,9.8,000225,   NaN,61.6,32.891590,-118.985490,0.31,NaN,NaN,15.381, NaN,NaN,NaN, NaN, NaN
20040329,000414,518644,32.892220,-118.983960,NaN,15.363,33.076,41.141,728.37,0.0, NaN,16.090,16.044, NaN,24.410,   NaN,16.97,1014.10,92.78,16.81,342.8,339.0,3.7,3.8,278.5,285.7,2.1,2.1,NaN, NaN,NaN,57.6,NaN,1080518655,NaN,NaN,9.8,000254,   NaN,62.1,32.892200,-118.984060,0.34,NaN,NaN,15.367, NaN,NaN,NaN, NaN, NaN
20040329,000444,518674,32.892850,-118.982490,NaN,15.327,33.075,41.106,854.30,0.0, NaN,16.086,16.045, NaN,24.417,   NaN,16.96,1014.08,92.72,16.80,339.1,333.8,3.8,3.7,286.9,288.4,2.1,2.4,NaN, NaN,NaN,59.0,NaN,1080518685,NaN,NaN,9.9,000285,   NaN,61.6,32.892810,-118.982650,0.11,NaN,NaN,15.331, NaN,NaN,NaN, NaN, NaN
20040329,000514,518704,32.893430,-118.981120,NaN,15.263,33.075,41.046,933.93,0.0, NaN,16.114,16.077, NaN,24.431,   NaN,16.97,1014.08,92.71,16.82,337.3,331.3,3.9,3.8,291.0,290.9,2.2,2.6,NaN, NaN,NaN,63.0,NaN,1080518715,NaN,NaN,9.4,000314,   NaN,62.2,32.893410,-118.981220,0.35,NaN,NaN,15.267, NaN,NaN,NaN, NaN, NaN
20040329,000544,518734,32.894040,-118.979710,NaN,15.237,33.077,41.023,794.79,0.0, NaN,16.145,16.109, NaN,24.439,   NaN,16.97,1014.12,92.68,16.81,337.2,330.9,4.0,3.9,293.6,294.1,2.1,2.6,NaN, NaN,NaN,61.6,NaN,1080518745,NaN,NaN,9.8,000344,   NaN,60.4,32.894020,-118.979800,0.14,NaN,NaN,15.241, NaN,NaN,NaN, NaN, NaN
20040329,000614,518764,32.894650,-118.978290,NaN,15.235,33.077,41.022,708.65,0.0, NaN,16.206,16.176, NaN,24.439,   NaN,16.96,1014.12,92.65,16.84,338.4,332.1,4.0,3.9,293.8,292.6,2.0,2.5,NaN, NaN,NaN,63.4,NaN,1080518775,NaN,NaN,9.5,000374,   NaN,62.1,32.894630,-118.978400,-0.06,NaN,NaN,15.239, NaN,NaN,NaN, NaN, NaN
20040329,000644,518794,32.895260,-118.976860,NaN,15.205,33.076,40.992,654.64,0.0, NaN,16.287,16.260, NaN,24.445,   NaN,16.96,1014.12,92.62,16.83,339.3,334.0,4.0,3.8,294.3,291.9,2.0,2.4,NaN, NaN,NaN,66.4,NaN,1080518805,NaN,NaN,10.0,000404,   NaN,61.1,32.895230,-118.976960,0.13,NaN,NaN,15.209, NaN,NaN,NaN, NaN, NaN
20040329,000714,518824,32.895880,-118.975380,NaN,15.173,33.077,40.963,577.01,0.0, NaN,16.342,16.312, NaN,24.452,   NaN,16.95,1014.10,92.55,16.82,338.1,333.4,4.0,3.9,294.0,292.8,2.1,2.4,NaN, NaN,NaN,61.0,NaN,1080518835,NaN,NaN,9.8,000435,   NaN,61.9,32.895840,-118.975530,0.09,NaN,NaN,15.177, NaN,NaN,NaN, NaN, NaN
20040329,000744,518854,32.896480,-118.974010,NaN,15.205,33.079,40.996,517.29,0.0, NaN,16.349,16.312, NaN,24.447,   NaN,16.95,1014.11,92.50,16.80,336.3,332.2,4.1,3.9,296.4,291.5,2.2,2.5,NaN, NaN,NaN,62.9,NaN,1080518865,NaN,NaN,9.4,000464,   NaN,62.2,32.896460,-118.974110,0.23,NaN,NaN,15.209, NaN,NaN,NaN, NaN, NaN
20040329,000814,518883,32.897090,-118.972590,NaN,15.253,33.077,41.038,517.54,0.0, NaN,16.332,16.297, NaN,24.435,   NaN,16.96,1014.09,92.47,16.84,335.1,331.3,4.2,3.9,299.3,292.6,2.2,2.6,NaN, NaN,NaN,65.5,NaN,1080518895,NaN,NaN,9.2,000494,   NaN,63.2,32.897060,-118.972690,0.26,NaN,NaN,15.257, NaN,NaN,NaN, NaN, NaN
20040329,000844,518914,32.897700,-118.971130,NaN,15.256,33.078,41.042,571.20,0.0, NaN,16.357,16.325, NaN,24.435,   NaN,16.97,1014.06,92.43,16.85,334.5,329.9,4.2,4.0,300.8,295.5,2.3,2.6,NaN, NaN,NaN,53.5,NaN,1080518926,NaN,NaN,9.5,000525,   NaN,61.2,32.897680,-118.971230,0.02,NaN,NaN,15.260, NaN,NaN,NaN, NaN, NaN
20040329,000914,518944,32.898310,-118.969740,NaN,15.333,33.079,41.115,658.76,0.0, NaN,16.397,16.368, NaN,24.419,   NaN,16.97,1014.04,92.41,16.85,334.1,328.5,4.3,4.1,304.3,299.1,2.3,2.7,NaN, NaN,NaN,60.6,NaN,1080518956,NaN,NaN,9.3,000555,   NaN,60.4,32.898270,-118.969830,0.34,NaN,NaN,15.337, NaN,NaN,NaN, NaN, NaN
20040329,000944,518974,32.898900,-118.968340,NaN,15.337,33.075,41.115,682.83,0.0, NaN,16.452,16.423, NaN,24.415,   NaN,16.97,1014.07,92.36,16.87,333.5,328.5,4.4,4.2,306.2,301.7,2.3,2.7,NaN, NaN,NaN,63.1,NaN,1080518986,NaN,NaN,9.6,000585,   NaN,62.6,32.898870,-118.968450,0.00,NaN,NaN,15.341, NaN,NaN,NaN, NaN, NaN
20040329,001015,519005,32.899520,-118.966900,NaN,15.273,33.075,41.055,732.82,0.0, NaN,16.490,16.461, NaN,24.429,   NaN,16.98,1014.05,92.33,16.86,335.1,330.1,4.4,4.3,308.3,304.4,2.2,2.6,NaN, NaN,NaN,52.1,NaN,1080519017,NaN,NaN,9.6,000616,   NaN,61.3,32.899490,-118.967000,-0.05,NaN,NaN,15.277, NaN,NaN,NaN, NaN, NaN
20040329,001045,519035,32.900110,-118.965480,NaN,15.224,33.076,41.009,592.59,0.0, NaN,16.503,16.473, NaN,24.440,   NaN,16.98,1014.06,92.38,16.89,338.3,332.8,4.5,4.3,308.0,304.0,2.0,2.4,NaN, NaN,NaN,67.1,NaN,1080519046,NaN,NaN,9.5,000646,   NaN,62.6,32.900080,-118.965580,0.29,NaN,NaN,15.228, NaN,NaN,NaN, NaN, NaN
20040329,001115,519065,32.900710,-118.964060,NaN,15.220,33.077,41.006,702.85,0.0, NaN,16.505,16.472, NaN,24.442,   NaN,16.97,1014.01,92.33,16.89,337.5,332.7,4.4,4.3,307.4,302.9,2.0,2.4,NaN, NaN,NaN,65.0,NaN,1080519077,NaN,NaN,9.5,000676,   NaN,61.2,32.900680,-118.964170,0.50,NaN,NaN,15.224, NaN,NaN,NaN, NaN, NaN
20040329,001145,519095,32.901280,-118.962660,NaN,15.276,33.076,41.059,568.62,0.0, NaN,16.504,16.471, NaN,24.429,   NaN,16.96,1014.01,92.28,16.88,333.0,329.2,4.3,4.2,305.5,302.7,2.4,2.7,NaN, NaN,NaN,66.5,NaN,1080519107,NaN,NaN,9.6,000706,   NaN,62.3,32.901250,-118.962770,0.14,NaN,NaN,15.280, NaN,NaN,NaN, NaN, NaN
20040329,001215,519125,32.901860,-118.961230,NaN,15.340,33.077,41.119,573.16,0.0, NaN,16.491,16.455, NaN,24.416,   NaN,16.95,1014.00,92.24,16.85,331.8,326.9,4.2,4.1,302.3,300.2,2.5,2.9,NaN, NaN,NaN,67.0,NaN,1080519137,NaN,NaN,9.3,000736,   NaN,61.6,32.901830,-118.961330,0.34,NaN,NaN,15.344, NaN,NaN,NaN, NaN, NaN
20040329,001245,519155,32.902440,-118.959820,NaN,15.439,33.077,41.214,614.24,0.0, NaN,16.468,16.429, NaN,24.394,   NaN,16.97,1014.05,92.28,16.88,334.7,329.6,4.2,4.1,301.6,299.3,2.3,2.7,NaN, NaN,NaN,63.4,NaN,1080519167,NaN,NaN,9.6,000766,   NaN,61.2,32.902420,-118.959920,-0.12,NaN,NaN,15.443, NaN,NaN,NaN, NaN, NaN
20040329,001315,519185,32.903030,-118.958400,NaN,15.543,33.077,41.310,601.40,0.0, NaN,16.439,16.402, NaN,24.371,   NaN,16.98,1014.00,92.30,16.87,336.1,331.4,4.2,4.0,300.8,298.3,2.2,2.5,NaN, NaN,NaN,55.2,NaN,1080519197,NaN,NaN,9.6,000796,   NaN,62.2,32.903000,-118.958510,0.14,NaN,NaN,15.547, NaN,NaN,NaN, NaN, NaN
20040329,001345,519215,32.903600,-118.956970,NaN,15.584,33.075,41.346,619.13,0.0, NaN,16.426,16.390, NaN,24.360,   NaN,16.97,1014.00,92.25,16.87,333.4,328.9,4.0,4.0,296.7,297.4,2.4,2.7,NaN, NaN,NaN,62.3,NaN,1080519227,NaN,NaN,9.5,000826,   NaN,61.4,32.903580,-118.957070,-0.09,NaN,NaN,15.588, NaN,NaN,NaN, NaN, NaN
20040329,001415,519245,32.904200,-118.955540,NaN,15.596,33.075,41.358,652.63,0.0, NaN,16.427,16.393, NaN,24.358,   NaN,16.97,1013.99,92.29,16.90,331.7,327.3,3.9,3.9,295.6,295.5,2.6,2.9,NaN, NaN,NaN,65.1,NaN,1080519257,NaN,NaN,9.6,000856,   NaN,61.9,32.904180,-118.955640,0.38,NaN,NaN,15.600, NaN,NaN,NaN, NaN, NaN
20040329,001445,519275,32.904800,-118.954130,NaN,15.605,33.075,41.367,727.44,0.0, NaN,16.442,16.409, NaN,24.356,   NaN,16.98,1014.01,92.35,16.89,332.9,328.7,4.0,3.9,296.6,293.8,2.5,2.8,NaN, NaN,NaN,58.5,NaN,1080519287,NaN,NaN,10.0,000886,   NaN,61.1,32.904780,-118.954240,-0.06,NaN,NaN,15.609, NaN,NaN,NaN, NaN, NaN
20040329,001515,519304,32.905390,-118.952710,NaN,15.579,33.074,41.341,696.39,0.0, NaN,16.469,16.435, NaN,24.361,   NaN,16.99,1014.00,92.40,16.88,333.9,328.4,4.1,3.9,298.5,296.0,2.4,2.8,NaN, NaN,NaN,64.7,NaN,1080519317,NaN,NaN,10.1,000916,   NaN,61.2,32.905360,-118.952810,0.19,NaN,NaN,15.583, NaN,NaN,NaN, NaN, NaN
20040329,001545,519335,32.905980,-118.951270,NaN,15.538,33.073,41.301,610.58,0.0, NaN,16.473,16.434, NaN,24.369,   NaN,16.99,1014.01,92.43,16.89,333.5,327.9,4.1,3.9,298.8,295.0,2.4,2.8,NaN, NaN,NaN,66.6,NaN,1080519347,NaN,NaN,9.9,000946,   NaN,63.1,32.905960,-118.951370,0.11,NaN,NaN,15.542, NaN,NaN,NaN, NaN, NaN
20040329,001615,519365,32.906580,-118.949820,NaN,15.502,33.075,41.269,613.60,0.0, NaN,16.446,16.407, NaN,24.378,   NaN,16.99,1013.99,92.45,16.89,332.8,327.6,4.0,3.9,296.3,293.9,2.5,2.9,NaN, NaN,NaN,63.4,NaN,1080519377,NaN,NaN,9.7,000976,   NaN,61.4,32.906550,-118.949920,0.17,NaN,NaN,15.506, NaN,NaN,NaN, NaN, NaN
20040329,001645,519395,32.907180,-118.948380,NaN,15.454,33.074,41.224,749.85,0.0, NaN,16.416,16.374, NaN,24.388,   NaN,16.98,1014.03,92.48,16.91,333.1,328.1,4.0,4.0,294.8,294.9,2.5,2.8,NaN, NaN,NaN,70.7,NaN,1080519407,NaN,NaN,9.9,001006,   NaN,61.2,32.907150,-118.948490,0.06,NaN,NaN,15.458, NaN,NaN,NaN, NaN, NaN
20040329,001715,519425,32.907790,-118.946940,NaN,15.403,33.075,41.177,675.61,0.0, NaN,16.389,16.347, NaN,24.401,   NaN,16.99,1014.02,92.54,16.90,333.2,328.3,4.1,3.9,296.0,293.1,2.5,2.9,NaN, NaN,NaN,62.3,NaN,1080519437,NaN,NaN,9.6,001036,   NaN,61.7,32.907770,-118.947050,0.03,NaN,NaN,15.407, NaN,NaN,NaN, NaN, NaN
20040329,001745,519455,32.908410,-118.945490,NaN,15.419,33.085,41.203,735.76,0.0, NaN,16.387,16.349, NaN,24.405,   NaN,16.98,1014.00,92.55,16.89,331.7,327.7,4.0,3.8,295.7,290.9,2.6,2.9,NaN, NaN,NaN,64.9,NaN,1080519467,NaN,NaN,9.7,001066,   NaN,63.0,32.908380,-118.945590,0.09,NaN,NaN,15.423, NaN,NaN,NaN, NaN, NaN
20040329,001815,519484,32.909020,-118.944060,NaN,15.512,33.091,41.296,805.62,0.0, NaN,16.397,16.360, NaN,24.389,   NaN,16.98,1014.01,92.54,16.89,330.0,325.6,3.9,3.8,292.5,291.5,2.7,3.0,NaN, NaN,NaN,62.1,NaN,1080519497,NaN,NaN,9.7,001096,   NaN,61.6,32.909000,-118.944170,0.28,NaN,NaN,15.516, NaN,NaN,NaN, NaN, NaN
20040329,001845,519515,32.909640,-118.942640,NaN,15.486,33.088,41.269,594.49,0.0, NaN,16.395,16.354, NaN,24.392,   NaN,16.97,1013.96,92.55,16.88,327.9,322.9,3.7,3.9,289.6,293.4,2.8,3.2,NaN, NaN,NaN,58.6,NaN,1080519527,NaN,NaN,9.7,001126,   NaN,61.8,32.909610,-118.942740,-0.05,NaN,NaN,15.490, NaN,NaN,NaN, NaN, NaN
20040329,001915,519545,32.910250,-118.941210,NaN,15.420,33.089,41.208,630.14,0.0, NaN,16.407,16.369, NaN,24.407,   NaN,16.97,1013.96,92.52,16.89,326.6,320.8,3.7,4.0,289.6,296.3,2.9,3.3,NaN, NaN,NaN,64.1,NaN,1080519557,NaN,NaN,9.2,001156,   NaN,62.2,32.910220,-118.941320,0.01,NaN,NaN,15.424, NaN,NaN,NaN, NaN, NaN
20040329,001945,519575,32.910870,-118.939780,NaN,15.379,33.089,41.170,723.99,0.0, NaN,16.431,16.397, NaN,24.416,   NaN,16.98,1013.96,92.52,16.89,327.3,321.1,3.8,4.1,291.1,298.0,2.8,3.3,NaN, NaN,NaN,64.5,NaN,1080519587,NaN,NaN,9.8,001186,   NaN,60.8,32.910820,-118.939880,-0.02,NaN,NaN,15.383, NaN,NaN,NaN, NaN, NaN
20040329,002015,519605,32.911490,-118.938360,NaN,15.341,33.082,41.127,869.41,0.0, NaN,16.460,16.426, NaN,24.419,   NaN,16.98,1013.94,92.53,16.87,328.1,322.1,3.9,4.2,294.1,298.4,2.8,3.2,NaN, NaN,NaN,57.4,NaN,1080519617,NaN,NaN,9.8,001216,   NaN,61.4,32.911450,-118.938460,-0.08,NaN,NaN,15.345, NaN,NaN,NaN, NaN, NaN
20040329,002045,519635,32.912110,-118.936930,NaN,15.307,33.095,41.109,807.27,0.0, NaN,16.435,16.393, NaN,24.437,   NaN,16.98,1013.93,92.55,16.89,327.8,322.0,3.9,4.1,293.6,297.2,2.8,3.2,NaN, NaN,NaN,65.3,NaN,1080519647,NaN,NaN,9.9,001246,   NaN,62.1,32.912070,-118.937030,0.15,NaN,NaN,15.311, NaN,NaN,NaN, NaN, NaN
20040329,002115,519665,32.912840,-118.935610,NaN,15.271,33.098,41.079,833.26,0.0, NaN,16.382,16.336, NaN,24.447,   NaN,16.97,1013.91,92.52,16.88,326.6,321.8,3.9,4.2,291.2,296.2,2.9,3.3,NaN, NaN,NaN,43.4,NaN,1080519677,NaN,NaN,9.5,001276,   NaN,40.9,32.912780,-118.935700,0.61,NaN,NaN,15.275, NaN,NaN,NaN, NaN, NaN
20040329,002146,519696,32.913930,-118.934690,NaN,15.299,33.105,41.112,1394.49,0.0, NaN,16.367,16.327, NaN,24.446,   NaN,16.98,1013.94,92.53,16.88,325.8,321.6,4.3,4.7,288.2,292.4,3.1,3.5,NaN, NaN,NaN,29.1,NaN,1080519708,NaN,NaN,9.6,001307,   NaN,23.1,32.913840,-118.934760,0.26,NaN,NaN,15.303, NaN,NaN,NaN, NaN, NaN
20040329,002216,519725,32.915050,-118.934240,NaN,15.352,33.093,41.149,1752.12,0.0, NaN,16.365,16.322, NaN,24.425,   NaN,17.00,1013.92,92.54,16.90,327.0,323.6,5.1,5.1,288.7,286.6,3.2,3.4,NaN, NaN,NaN,5.7,NaN,1080519738,NaN,NaN,7.1,001337,   NaN,3.0,32.914940,-118.934270,0.43,NaN,NaN,15.356, NaN,NaN,NaN, NaN, NaN
20040329,002246,519756,32.915900,-118.934300,NaN,15.404,33.111,41.218,1620.87,0.0, NaN,16.335,16.294, NaN,24.428,   NaN,17.04,1013.95,92.65,16.91,330.2,327.2,5.2,5.0,288.4,283.2,3.0,3.1,NaN, NaN,NaN,324.6,NaN,1080519768,NaN,NaN,5.8,001367,   NaN,344.5,32.915780,-118.934280,0.48,NaN,NaN,15.408, NaN,NaN,NaN, NaN, NaN
20040329,002315,519785,32.916460,-118.934540,NaN,15.444,33.106,41.249,1773.82,0.0, NaN,16.335,16.298, NaN,24.415,   NaN,17.13,1013.95,92.74,16.95,335.0,331.4,4.7,4.5,288.9,283.3,2.6,2.7,NaN, NaN,NaN,351.6,NaN,1080519797,NaN,NaN,4.4,001396,   NaN,322.1,32.916350,-118.934470,0.64,NaN,NaN,15.448, NaN,NaN,NaN, NaN, NaN
20040329,002345,519814,32.916750,-118.934880,NaN,15.431,33.111,41.243,1801.92,0.0, NaN,16.376,16.341, NaN,24.422,   NaN,17.24,1013.94,92.72,16.96,343.6,339.6,4.0,4.2,289.6,287.1,2.3,2.6,NaN, NaN,NaN,324.9,NaN,1080519827,NaN,NaN,2.2,001426,   NaN,301.0,32.916660,-118.934750,0.54,NaN,NaN,15.435, NaN,NaN,NaN, NaN, NaN
20040329,002415,519845,32.916890,-118.935150,NaN,15.357,33.110,41.173,1804.30,0.0, NaN,16.413,16.376, NaN,24.438,   NaN,17.32,1013.96,92.72,17.00,353.5,350.5,3.5,3.9,291.6,288.8,2.2,2.7,NaN, NaN,NaN,299.0,NaN,1080519857,NaN,NaN,1.6,001456,   NaN,285.7,32.916820,-118.935000,0.34,NaN,NaN,15.361, NaN,NaN,NaN, NaN, NaN
20040329,002445,519875,32.916930,-118.935400,NaN,15.294,33.111,41.115,1801.93,0.0, NaN,16.420,16.383, NaN,24.452,   NaN,17.37,1013.96,92.64,17.04,3.7,2.2,3.2,3.6,293.4,291.4,2.2,2.7,NaN, NaN,NaN,278.6,NaN,1080519887,NaN,NaN,1.4,001486,   NaN,281.9,32.916880,-118.935260,0.24,NaN,NaN,15.298, NaN,NaN,NaN, NaN, NaN
20040329,002515,519905,32.916950,-118.935630,NaN,15.243,33.111,41.067,1796.42,0.0, NaN,16.464,16.435, NaN,24.463,   NaN,17.40,1013.97,92.56,17.08,7.9,6.2,3.0,3.4,295.4,292.6,2.3,2.6,NaN, NaN,NaN,234.8,NaN,1080519917,NaN,NaN,1.5,001516,   NaN,287.6,32.916880,-118.935490,0.07,NaN,NaN,15.247, NaN,NaN,NaN, NaN, NaN
20040329,002545,519935,32.917000,-118.935820,NaN,15.208,33.111,41.034,1792.28,0.0, NaN,16.513,16.487, NaN,24.471,   NaN,17.44,1013.96,92.46,17.11,2.3,359.8,2.8,3.2,294.3,290.4,2.1,2.5,NaN, NaN,NaN,306.7,NaN,1080519947,NaN,NaN,1.3,001546,   NaN,300.1,32.916900,-118.935710,0.01,NaN,NaN,15.212, NaN,NaN,NaN, NaN, NaN
20040329,002615,519965,32.917030,-118.935980,NaN,15.194,33.112,41.022,1788.28,0.0, NaN,16.549,16.523, NaN,24.475,   NaN,17.49,1013.97,92.39,17.18,349.3,346.9,2.7,2.9,290.1,286.7,2.1,2.4,NaN, NaN,NaN,259.2,NaN,1080519977,NaN,NaN,1.0,001576,   NaN,309.5,32.916920,-118.935880,0.02,NaN,NaN,15.198, NaN,NaN,NaN, NaN, NaN
20040329,002645,519995,32.917090,-118.936070,NaN,15.214,33.114,41.043,1783.98,0.0, NaN,16.581,16.552, NaN,24.472,   NaN,17.54,1013.97,92.29,17.20,337.7,332.8,2.6,2.8,285.2,279.8,2.2,2.4,NaN, NaN,NaN,288.5,NaN,1080520007,NaN,NaN,0.5,001606,   NaN,312.4,32.916970,-118.935980,0.03,NaN,NaN,15.218, NaN,NaN,NaN, NaN, NaN
20040329,002715,520025,32.917140,-118.936180,NaN,15.271,33.115,41.098,1779.86,0.0, NaN,16.599,16.566, NaN,24.460,   NaN,17.56,1013.98,92.16,17.24,332.6,326.5,2.7,2.8,281.3,274.9,2.3,2.5,NaN, NaN,NaN,10.4,NaN,1080520037,NaN,NaN,2.2,001636,   NaN,305.7,32.917040,-118.936060,0.21,NaN,NaN,15.275, NaN,NaN,NaN, NaN, NaN
20040329,002745,520055,32.917180,-118.936270,NaN,15.297,33.113,41.120,1775.62,0.0, NaN,16.615,16.585, NaN,24.453,   NaN,17.57,1013.97,92.01,17.24,333.1,328.0,2.6,2.8,278.2,273.3,2.3,2.6,NaN, NaN,NaN,222.5,NaN,1080520067,NaN,NaN,0.8,001666,   NaN,300.6,32.917090,-118.936140,0.35,NaN,NaN,15.301, NaN,NaN,NaN, NaN, NaN
20040329,002815,520085,32.917210,-118.936340,NaN,15.296,33.111,41.117,1770.97,0.0, NaN,16.634,16.604, NaN,24.452,   NaN,17.60,1013.98,91.94,17.27,338.4,332.5,2.5,2.7,278.2,273.0,2.2,2.5,NaN, NaN,NaN,218.3,NaN,1080520097,NaN,NaN,0.7,001696,   NaN,295.1,32.917140,-118.936200,0.23,NaN,NaN,15.300, NaN,NaN,NaN, NaN, NaN
20040329,002845,520115,32.917260,-118.936400,NaN,15.314,33.114,41.136,1769.39,0.0, NaN,16.587,16.542, NaN,24.449,   NaN,17.64,1014.01,91.90,17.30,343.9,337.2,2.4,2.6,275.9,269.7,2.3,2.4,NaN, NaN,NaN,345.9,NaN,1080520127,NaN,NaN,0.4,001726,   NaN,288.9,32.917180,-118.936270,0.15,NaN,NaN,15.318, NaN,NaN,NaN, NaN, NaN
20040329,002915,520144,32.917260,-118.936480,NaN,15.407,33.118,41.229,1766.59,0.0, NaN,16.546,16.506, NaN,24.433,   NaN,17.67,1013.97,91.82,17.32,348.0,343.1,2.5,2.5,275.3,270.3,2.3,2.3,NaN, NaN,NaN,262.4,NaN,1080520157,NaN,NaN,0.7,001756,   NaN,287.1,32.917210,-118.936360,0.24,NaN,NaN,15.411, NaN,NaN,NaN, NaN, NaN
20040329,002945,520175,32.917270,-118.936590,NaN,15.477,33.118,41.294,1763.01,0.0, NaN,16.562,16.529, NaN,24.417,   NaN,17.70,1013.93,91.74,17.36,349.9,346.0,2.5,2.5,275.0,270.8,2.2,2.3,NaN, NaN,NaN,278.6,NaN,1080520187,NaN,NaN,0.7,001786,   NaN,288.6,32.917230,-118.936460,0.15,NaN,NaN,15.481, NaN,NaN,NaN, NaN, NaN
20040329,003015,520205,32.917300,-118.936660,NaN,15.538,33.117,41.351,1756.97,0.0, NaN,16.596,16.564, NaN,24.403,   NaN,17.71,1013.98,91.62,17.35,348.1,345.2,2.4,2.5,274.3,271.2,2.1,2.2,NaN, NaN,NaN,311.1,NaN,1080520217,NaN,NaN,0.7,001816,   NaN,289.6,32.917230,-118.936530,0.21,NaN,NaN,15.542, NaN,NaN,NaN, NaN, NaN
20040329,003045,520235,32.917310,-118.936730,NaN,15.557,33.116,41.367,1753.04,0.0, NaN,16.624,16.594, NaN,24.398,   NaN,17.73,1013.95,91.51,17.36,346.4,342.9,2.4,2.5,272.9,269.3,2.1,2.3,NaN, NaN,NaN,239.0,NaN,1080520247,NaN,NaN,0.7,001846,   NaN,291.7,32.917240,-118.936610,0.16,NaN,NaN,15.561, NaN,NaN,NaN, NaN, NaN
20040329,003115,520265,32.917330,-118.936830,NaN,15.603,33.119,41.413,1750.10,0.0, NaN,16.649,16.619, NaN,24.390,   NaN,17.75,1013.97,91.38,17.37,344.7,340.8,2.4,2.5,275.4,271.2,2.2,2.3,NaN, NaN,NaN,344.5,NaN,1080520277,NaN,NaN,0.6,001876,   NaN,295.4,32.917260,-118.936720,0.10,NaN,NaN,15.607, NaN,NaN,NaN, NaN, NaN
20040329,003145,520295,32.917350,-118.936950,NaN,15.660,33.119,41.467,1746.05,0.0, NaN,16.669,16.640, NaN,24.377,   NaN,17.77,1013.97,91.29,17.39,341.8,339.8,2.6,2.6,279.3,276.9,2.2,2.2,1711.0, NaN,NaN,347.5,NaN,1080520307,NaN,NaN,1.6,001906,   NaN,296.9,32.917280,-118.936840,0.14,NaN,NaN,15.664, NaN,NaN,NaN, NaN, NaN
20040329,003215,520324,32.917390,-118.937050,NaN,15.683,33.117,41.488,1741.67,0.0, NaN,16.680,16.648, NaN,24.371,   NaN,17.78,1013.97,91.24,17.42,340.8,339.2,2.6,2.7,276.4,274.4,2.2,2.3,1711.0, NaN,NaN,290.7,NaN,1080520337,NaN,NaN,0.9,001936,   NaN,295.6,32.917310,-118.936940,0.15,NaN,NaN,15.687, NaN,NaN,NaN, NaN, NaN
20040329,003245,520355,32.917410,-118.937120,NaN,15.720,33.120,41.526,1734.49,0.0, NaN,16.686,16.651, NaN,24.365,   NaN,17.82,1013.98,91.27,17.42,342.9,340.3,2.5,2.6,277.1,274.1,2.1,2.3,1711.0, NaN,NaN,290.7,NaN,1080520367,NaN,NaN,0.6,001966,   NaN,293.4,32.917350,-118.937010,0.24,NaN,NaN,15.724, NaN,NaN,NaN, NaN, NaN
20040329,003315,520385,32.917430,-118.937190,NaN,15.811,33.123,41.614,1729.14,0.0, NaN,16.686,16.651, NaN,24.346,   NaN,17.83,1013.99,91.11,17.43,347.1,343.4,2.5,2.6,279.3,275.0,2.2,2.3,1711.0, NaN,NaN,359.8,NaN,1080520397,NaN,NaN,0.6,001996,   NaN,287.9,32.917380,-118.937070,0.12,NaN,NaN,15.815, NaN,NaN,NaN, NaN, NaN
20040329,003345,520415,32.917440,-118.937260,NaN,15.815,33.118,41.612,1726.02,0.0, NaN,16.677,16.641, NaN,24.342,   NaN,17.84,1014.00,91.05,17.44,351.7,349.4,2.4,2.7,276.6,274.5,2.3,2.5,1711.0, NaN,NaN,359.8,NaN,1080520427,NaN,NaN,0.0,002026,   NaN,281.9,32.917410,-118.937120,0.10,NaN,NaN,15.819, NaN,NaN,NaN, NaN, NaN
20040329,003415,520445,32.917440,-118.937320,NaN,15.766,33.118,41.567,1719.48,0.0, NaN,16.663,16.627, NaN,24.353,   NaN,17.82,1014.00,91.01,17.45,359.2,356.5,2.3,2.8,276.0,274.1,2.3,2.7,1710.0, NaN,NaN,359.8,NaN,1080520457,NaN,NaN,0.5,002056,   NaN,277.9,32.917420,-118.937180,0.15,NaN,NaN,15.770, NaN,NaN,NaN, NaN, NaN
20040329,003446,520476,32.917440,-118.937380,NaN,15.885,33.126,41.688,1713.59,0.0, NaN,16.652,16.616, NaN,24.332,   NaN,17.80,1013.97,90.84,17.45,4.3,2.0,2.4,2.8,277.8,276.3,2.3,2.8,1711.0, NaN,NaN,356.5,NaN,1080520487,NaN,NaN,1.6,002086,   NaN,275.8,32.917410,-118.937230,0.20,NaN,NaN,15.889, NaN,NaN,NaN, NaN, NaN
20040329,003515,520505,32.917410,-118.937440,NaN,16.032,33.127,41.827,1699.19,0.0, NaN,16.627,16.582, NaN,24.300,   NaN,17.78,1013.99,90.73,17.46,5.7,5.6,2.5,2.9,280.4,280.1,2.4,2.9,1710.0, NaN,NaN,192.6,NaN,1080520517,NaN,NaN,0.8,002116,   NaN,275.9,32.917390,-118.937300,0.10,NaN,NaN,16.036, NaN,NaN,NaN, NaN, NaN
20040329,003545,520535,32.917410,-118.937530,NaN,16.076,33.125,41.867,1704.92,0.0, NaN,16.424,16.344, NaN,24.288,   NaN,17.76,1013.97,90.65,17.47,5.1,5.4,2.6,3.0,286.3,285.5,2.5,2.9,1710.0, NaN,NaN,222.4,NaN,1080520547,NaN,NaN,0.8,002146,   NaN,283.7,32.917370,-118.937400,0.10,NaN,NaN,16.080, NaN,NaN,NaN, NaN, NaN
20040329,003616,520565,32.917410,-118.937630,NaN,16.036,33.121,41.824,1701.80,0.0, NaN,16.193,16.113, NaN,24.295,   NaN,17.77,1014.00,90.56,17.46,359.1,359.2,2.7,3.1,287.9,287.1,2.5,2.9,1711.0, NaN,NaN,252.2,NaN,1080520578,NaN,NaN,1.1,002177,   NaN,296.1,32.917350,-118.937520,0.06,NaN,NaN,16.040, NaN,NaN,NaN, NaN, NaN
20040329,003646,520596,32.917420,-118.937690,NaN,15.962,33.108,41.740,1698.83,0.0, NaN,16.072,15.997, NaN,24.301,   NaN,17.80,1013.96,90.51,17.48,349.3,347.4,2.7,3.0,288.1,285.5,2.5,2.7,1711.0, NaN,NaN,252.2,NaN,1080520608,NaN,NaN,0.0,002207,   NaN,305.5,32.917340,-118.937610,0.03,NaN,NaN,15.966, NaN,NaN,NaN, NaN, NaN
20040329,003716,520626,32.917430,-118.937740,NaN,15.874,33.114,41.664,1692.85,0.0, NaN,16.023,15.962, NaN,24.326,   NaN,17.83,1013.95,90.46,17.49,338.5,335.7,2.8,2.9,287.0,283.8,2.6,2.7,1711.0, NaN,NaN,206.7,NaN,1080520638,NaN,NaN,0.4,002237,   NaN,312.6,32.917330,-118.937670,0.02,NaN,NaN,15.878, NaN,NaN,NaN, NaN, NaN